Weather History for Faith, SD

Change the Weather History Date:

Thursday, January 30, 2014

  Actual Average Record
Temperature  
Mean Temperature 9 °F 21 °F  
Max Temperature 16 °F 31 °F 58 °F (2012)
Min Temperature 1 °F 11 °F -9 °F (2004)
Degree Days  
Heating Degree Days 56 44  
Month to date heating degree days 1322 1346  
Since 1 July heating degree days 4642 4489  
Cooling Degree Days 0 0  
Month to date cooling degree days 0 0  
Year to date cooling degree days 0 0  
Moisture  
Dew Point 3 °F    
Average Humidity 80    
Maximum Humidity 92    
Minimum Humidity 67    
Precipitation  
Precipitation 0.05 in 0.00 in 0.09 in (2005)
Month to date precipitation 0.19 0.19  
Year to date precipitation 0.19 0.19  
Sea Level Pressure  
Sea Level Pressure 29.97 in    
Wind  
Wind Speed 14 mph (NW)    
Max Wind Speed 28 mph    
Max Gust Speed 33 mph    
T = Trace of Precipitation, MM = Missing Value Source: NWS Daily Summary

Daily Weather History Graph

Daily Weather History Graph

Search for Another Location

Airport:

Trip Planner

Search our weather history database for the weather conditions in past years. The results will help you decide how hot, cold, wet, or windy it might be!

Date:

Astronomy

Jan. 30, 2014 Rise Set
Actual Time 7:10 AM MST 4:53 PM MST
Civil Twilight 6:38 AM MST 5:24 PM MST
Nautical Twilight 6:03 AM MST 6:00 PM MST
Astronomical Twilight 5:28 AM MST 6:34 PM MST
Moon 6:35 AM MST (1/30) 5:10 PM MST (1/30)
Length of Visible Light 10h 46m
Length of Day
9h 43m
Waning Crescent, 0% of the Moon is Illuminated
Jan 30
Waning Crescent
Jan 30
New
Feb 6
First Quarter
Feb 14
Full
Feb 22
Last Quarter

Hourly Weather History & Observations

Time (MST) Temp. Windchill Dew Point Humidity Pressure Visibility Wind Dir Wind Speed Gust Speed Precip Events Conditions
12:56 AM 16.0 °F -0.4 °F 12.9 °F 88% 29.56 in - NNE 18.4 mph - 0.04 in   Unknown
1:56 AM 14.0 °F -4.7 °F 10.9 °F 88% 29.60 in - North 23.0 mph - 0.01 in   Unknown
2:56 AM 12.9 °F -3.9 °F 10.0 °F 88% 29.69 in - North 17.3 mph - N/A   Unknown
3:56 AM 12.9 °F -3.4 °F 9.0 °F 84% 29.74 in - North 16.1 mph - N/A   Unknown
4:56 AM 12.0 °F -4.5 °F 7.0 °F 80% 29.79 in - North 16.1 mph - N/A   Unknown
5:56 AM 10.0 °F -5.2 °F 5.0 °F 80% 29.84 in - NNW 12.7 mph - N/A   Unknown
6:56 AM 9.0 °F -7.9 °F 5.0 °F 84% 29.88 in - NNW 15.0 mph - N/A   Unknown
7:56 AM 9.0 °F -4.2 °F 3.9 °F 80% 29.93 in - NNW 9.2 mph - N/A   Unknown
8:56 AM 10.0 °F -4.5 °F 5.0 °F 80% 29.98 in - NNW 11.5 mph - N/A   Unknown
9:56 AM 10.9 °F -5.4 °F 3.0 °F 70% 30.00 in - NNW 15.0 mph - N/A   Unknown
10:56 AM 10.9 °F -5.4 °F 3.9 °F 73% 30.02 in - NNW 15.0 mph - N/A   Unknown
11:56 AM 12.0 °F -5.1 °F 5.0 °F 73% 30.02 in - NW 17.3 mph - 0.01 in   Unknown
12:56 PM 12.0 °F -4.0 °F 6.1 °F 77% 30.03 in - NW 15.0 mph - N/A   Unknown
1:56 PM 12.0 °F -6.0 °F 3.9 °F 70% 30.02 in - NW 19.6 mph - N/A   Unknown
2:56 PM 12.9 °F -3.4 °F 3.9 °F 67% 30.03 in - NNW 16.1 mph - N/A   Unknown
3:56 PM 12.9 °F -3.9 °F 3.9 °F 67% 30.05 in - NW 17.3 mph - N/A   Unknown
4:56 PM 8.1 °F -9.0 °F 1.0 °F 73% 30.08 in - NNW 15.0 mph - N/A   Unknown
5:56 PM 3.0 °F -11.5 °F -2.0 °F 80% 30.10 in - NW 9.2 mph - N/A   Unknown
6:56 PM 3.9 °F -12.2 °F -0.9 °F 80% 30.10 in - NNW 11.5 mph - N/A   Unknown
7:56 PM 1.0 °F -8.7 °F -2.9 °F 83% 30.14 in - SW 4.6 mph - N/A   Unknown
8:56 PM 1.0 °F -12.9 °F -2.9 °F 83% 30.15 in - WSW 8.1 mph - N/A   Unknown
9:56 PM 3.0 °F -12.5 °F -2.0 °F 80% 30.16 in - NW 10.4 mph - N/A   Unknown
10:56 PM 3.0 °F -6.4 °F -2.9 °F 76% 30.15 in - West 4.6 mph - N/A   Unknown
11:56 PM 1.9 °F -11.8 °F -2.9 °F 80% 30.14 in - SW 8.1 mph - N/A   Unknown